Monroe, LA

4:55 AM CST on December 14, 2017 (GMT -0600)
Monroe Regional

Weather History for KMLU - May, 2013

Change the Weather History Date:

Monday, May 20, 2013

  Actual Average Record
Temperature  
Mean Temperature 83 °F 75 °F  
Max Temperature 91 °F 86 °F 98 °F (1978)
Min Temperature 75 °F 64 °F 47 °F (2002)
Degree Days  
Heating Degree Days 0 0  
Month to date heating degree days 41 3  
Since 1 July heating degree days 2205 2227  
Cooling Degree Days 18 10  
Month to date cooling degree days 106 160  
Year to date cooling degree days 219 307  
Growing Degree Days 33 (Base 50)    
Moisture  
Dew Point 71 °F    
Average Humidity 70    
Maximum Humidity 87    
Minimum Humidity 52    
Precipitation  
Precipitation 0.00 in 0.16 in 4.25 in (1983)
Month to date precipitation 2.60 3.41  
Year to date precipitation 24.26 22.27  
Snow  
Snow 0.00 in - - ()
Month to date snowfall 0.0  
Since 1 July snowfall 0.3  
Snow Depth 0.00 in    
Sea Level Pressure  
Sea Level Pressure 29.91 in    
Wind  
Wind Speed 10 mph (South)    
Max Wind Speed 20 mph    
Max Gust Speed 26 mph    
Visibility 10 miles    
Events      
T = Trace of Precipitation, MM = Missing Value Source: NWS Daily Summary

Daily Weather History Graph

Daily Weather History Graph

Search for Another Location

Airport or City:

Trip Planner

Search our weather history database for the weather conditions in past years. The results will help you decide how hot, cold, wet, or windy it might be!

Date:

Astronomy

May. 20, 2013 Rise Set
Actual Time 6:06 AM CDT 8:03 PM CDT
Civil Twilight 5:39 AM CDT 8:30 PM CDT
Nautical Twilight 5:05 AM CDT 9:03 PM CDT
Astronomical Twilight 4:30 AM CDT 9:39 PM CDT
Moon 3:26 PM CDT (5/20) 2:45 AM CDT (5/20)
Length of Visible Light 14h 51m
Length of Day
13h 56m
Waxing Gibbous, 75% of the Moon is Illuminated
May 20
Waxing Gibbous
May 24
Full
May 31
Last Quarter
Jun 8
New
Jun 16
First Quarter

Hourly Weather History & Observations

Time (CDT) Temp. Heat Index Dew Point Humidity Pressure Visibility Wind Dir Wind Speed Gust Speed Precip Events Conditions
12:53 AM 75.0 °F - 69.1 °F 82% 29.91 in 10.0 mi South 11.5 mph - N/A   Clear
1:14 AM 75.2 °F - 69.8 °F 83% 29.91 in 10.0 mi South 10.4 mph - N/A   Mostly Cloudy
1:22 AM 75.2 °F - 69.8 °F 83% 29.91 in 10.0 mi South 11.5 mph - N/A   Scattered Clouds
1:29 AM 75.2 °F - 69.8 °F 83% 29.91 in 10.0 mi South 10.4 mph - N/A   Mostly Cloudy
1:53 AM 75.9 °F - 70.0 °F 82% 29.91 in 10.0 mi South 10.4 mph - N/A   Overcast
2:07 AM 75.2 °F - 69.8 °F 83% 29.90 in 10.0 mi South 6.9 mph - N/A   Overcast
2:53 AM 75.2 °F - 69.8 °F 83% 29.91 in 10.0 mi South 8.1 mph - N/A   Overcast
3:53 AM 75.9 °F - 71.1 °F 85% 29.91 in 10.0 mi SSE 5.8 mph - N/A   Overcast
4:53 AM 75.9 °F - 71.1 °F 85% 29.92 in 10.0 mi SSE 6.9 mph - N/A   Overcast
5:53 AM 75.2 °F - 71.6 °F 89% 29.94 in 10.0 mi SSE 6.9 mph - N/A   Overcast
6:53 AM 75.2 °F - 71.6 °F 89% 29.96 in 9.0 mi SSE 5.8 mph - N/A   Overcast
7:53 AM 78.1 °F - 72.0 °F 81% 29.96 in 10.0 mi SSE 10.4 mph - N/A   Mostly Cloudy
8:34 AM 78.8 °F - 71.6 °F 78% 29.97 in 10.0 mi South 6.9 mph - N/A   Overcast
8:53 AM 79.0 °F - 72.0 °F 79% 29.96 in 10.0 mi South 11.5 mph - N/A   Mostly Cloudy
9:38 AM 82.4 °F 87.2 °F 71.6 °F 70% 29.96 in 10.0 mi South 16.1 mph 21.9 mph N/A   Scattered Clouds
9:53 AM 82.9 °F 88.0 °F 72.0 °F 69% 29.96 in 10.0 mi South 15.0 mph 23.0 mph N/A   Partly Cloudy
10:53 AM 82.9 °F 87.0 °F 70.0 °F 65% 29.95 in 10.0 mi South 19.6 mph 26.5 mph N/A   Scattered Clouds
11:01 AM 84.2 °F 88.4 °F 69.8 °F 62% 29.96 in 10.0 mi South 15.0 mph - N/A   Mostly Cloudy
11:43 AM 84.2 °F 89.6 °F 71.6 °F 66% 29.94 in 10.0 mi SSW 12.7 mph 19.6 mph N/A   Scattered Clouds
11:53 AM 86.0 °F 92.2 °F 72.0 °F 63% 29.94 in 10.0 mi SSW 13.8 mph 21.9 mph N/A   Scattered Clouds
12:53 PM 87.1 °F 92.8 °F 71.1 °F 59% 29.93 in 10.0 mi South 17.3 mph 23.0 mph N/A   Mostly Cloudy
1:53 PM 89.1 °F 95.0 °F 71.1 °F 55% 29.92 in 10.0 mi South 16.1 mph 24.2 mph N/A   Mostly Cloudy
2:53 PM 89.1 °F 94.1 °F 70.0 °F 53% 29.90 in 10.0 mi South 13.8 mph 21.9 mph N/A   Partly Cloudy
3:53 PM 90.0 °F 95.4 °F 70.0 °F 52% 29.88 in 10.0 mi South 10.4 mph 21.9 mph N/A   Partly Cloudy
4:53 PM 91.0 °F 97.6 °F 71.1 °F 52% 29.85 in 10.0 mi South 12.7 mph 19.6 mph N/A   Mostly Cloudy
5:53 PM 89.1 °F 94.1 °F 70.0 °F 53% 29.83 in 10.0 mi South 13.8 mph 19.6 mph N/A   Clear
6:53 PM 87.1 °F 91.3 °F 69.1 °F 55% 29.81 in 10.0 mi South 8.1 mph - N/A   Clear
7:53 PM 84.0 °F 88.4 °F 70.0 °F 63% 29.83 in 10.0 mi South 8.1 mph - N/A   Clear
8:53 PM 82.4 °F 86.3 °F 69.8 °F 66% 29.85 in 10.0 mi South 5.8 mph - N/A   Clear
9:53 PM 81.0 °F 84.4 °F 70.0 °F 69% 29.87 in 10.0 mi South 9.2 mph - N/A   Clear
10:53 PM 79.0 °F - 71.1 °F 77% 29.90 in 10.0 mi South 6.9 mph - N/A   Clear
11:53 PM 77.0 °F - 71.1 °F 82% 29.90 in 10.0 mi South 6.9 mph - N/A   Clear